Location: Unspecified
(0.0000°N, 0.0000°E)
Time: 11:17:45
(UTC+00:00)

Explorer 11/Cluster Stage 4 - Pass Details

Date: 10 October 2020
Orbit: 467 x 1258 km, 28.8° (Epoch: 28 October)

Event Time Altitude Azimuth Distance (km) Brightness Sun altitude
Rises 13:33:42 0° 221° (SW) 3,865 10.5 62.5°
Reaches altitude 10° 13:37:12 10° 209° (SSW) 2,769 9.8 61.6°
Maximum altitude 13:42:32 25° 156° (SSE) 1,692 8.6 60.3°
Drops below altitude 10° 13:47:02 10° 102° (ESE) 2,299 8.8 59.2°
Sets 13:49:38 0° 88° (E) 3,086 9.3 58.6°
